Weather History for LGIR - October, 2013

Change the Weather History Date:

Thursday, October 17, 2013

  Actual Average Record
Temperature  
Mean Temperature 72 °F -  
Max Temperature 79 °F 71 °F - ()
Min Temperature 64 °F 59 °F - ()
Cooling Degree Days 6    
Growing Degree Days 22 (Base 50)    
Moisture  
Dew Point 58 °F    
Average Humidity 62    
Maximum Humidity 88    
Minimum Humidity 29    
Precipitation  
Precipitation 0.02 in 0.08 in - ()
Sea Level Pressure  
Sea Level Pressure 29.63 in    
Wind  
Wind Speed 15 mph ()    
Max Wind Speed 32 mph    
Max Gust Speed 44 mph    
Visibility 6.5 miles    
Events Rain , Thunderstorm    
T = Trace of Precipitation, MM = Missing Value Source: Averaged Metar Reports

Daily Weather History Graph

Daily Weather History Graph

Search for Another Location

Airport or City:

Trip Planner

Search our weather history database for the weather conditions in past years. The results will help you decide how hot, cold, wet, or windy it might be!

Date:

Astronomy

Oct. 17, 2013 Rise Set
Actual Time 7:27 AM EEST 6:41 PM EEST
Civil Twilight 7:01 AM EEST 7:07 PM EEST
Nautical Twilight 6:31 AM EEST 7:36 PM EEST
Astronomical Twilight 6:02 AM EEST 8:06 PM EEST
Moon 5:42 PM EEST (10/17) 5:41 AM EEST (10/17)
Length of Visible Light 12h 05m
Length of Day
11h 14m
Waxing Gibbous, 97% of the Moon is Illuminated
Oct 17
Waxing Gibbous
Oct 19
Full
Oct 27
Last Quarter
Nov 3
New
Nov 10
First Quarter

Hourly Weather History & Observations

Time (EEST) Temp. Dew Point Humidity Pressure Visibility Wind Dir Wind Speed Gust Speed Precip Events Conditions
12:20 AM 75.2 °F 62.6 °F 65% 29.68 in 6.2 mi South 10.4 mph - N/A   Overcast
12:50 AM 75.2 °F 60.8 °F 61% 29.65 in 6.2 mi SSW 8.1 mph - N/A   Overcast
1:20 AM 75.2 °F 60.8 °F 61% 29.65 in 6.2 mi South 17.3 mph - N/A   Overcast
1:50 AM 75.2 °F 60.8 °F 61% 29.62 in 6.2 mi South 19.6 mph - N/A   Overcast
2:20 AM 75.2 °F 60.8 °F 61% 29.62 in 6.2 mi South 18.4 mph - N/A Rain Light Rain
2:50 AM 73.4 °F 68.0 °F 83% 29.62 in 5.6 mi SW 17.3 mph - N/A Rain , Thunderstorm Light Thunderstorms and Rain
3:00 AM 74 °F 68 °F 75% 29.63 in 6 mi SW 17.3 mph - - Rain , Thunderstorm Thunderstorms and Rain
3:20 AM 73.4 °F 68.0 °F 83% 29.62 in 6.2 mi WNW 11.5 mph - N/A   Overcast
3:50 AM 73.4 °F 66.2 °F 78% 29.62 in 6.2 mi WNW 11.5 mph - N/A   Overcast
4:20 AM 73.4 °F 66.2 °F 78% 29.62 in 6.2 mi WNW 11.5 mph - N/A   Overcast
4:50 AM 73.4 °F 66.2 °F 78% 29.59 in 6.2 mi South 5.8 mph - N/A   Scattered Clouds
5:50 AM 69.8 °F 64.4 °F 83% 29.59 in 6.2 mi South 4.6 mph - N/A   Scattered Clouds
6:20 AM 69.8 °F 64.4 °F 83% 29.59 in 6.2 mi South 4.6 mph - N/A   Scattered Clouds
6:50 AM 69.8 °F 64.4 °F 83% 29.59 in 6.2 mi South 4.6 mph - N/A   Scattered Clouds
7:20 AM 68.0 °F 64.4 °F 88% 29.59 in 6.2 mi Variable 3.5 mph - N/A   Scattered Clouds
7:50 AM 68.0 °F 64.4 °F 88% 29.59 in 6.2 mi SSW 4.6 mph - N/A   Scattered Clouds
8:20 AM 68.0 °F 64.4 °F 88% 29.59 in 6.2 mi SSW 6.9 mph - N/A   Scattered Clouds
8:50 AM 73.4 °F 59.0 °F 61% 29.59 in 6.2 mi WSW 9.2 mph - N/A   Partly Cloudy
9:00 AM 73 °F 59 °F 52% 29.61 in 12 mi WSW 9.2 mph - -   Partly Cloudy
9:20 AM 73.4 °F 59.0 °F 61% 29.62 in 6.2 mi WSW 9.2 mph - N/A   Partly Cloudy
9:50 AM 73.4 °F 57.2 °F 57% 29.62 in 6.2 mi West 13.8 mph - N/A   Partly Cloudy
10:20 AM 73.4 °F 57.2 °F 57% 29.62 in 6.2 mi WSW 12.7 mph - N/A   Partly Cloudy
10:50 AM 77.0 °F 53.6 °F 44% 29.62 in 6.2 mi West 11.5 mph - N/A   Partly Cloudy
11:20 AM 77.0 °F 53.6 °F 44% 29.62 in 6.2 mi WNW 18.4 mph - N/A   Partly Cloudy
11:50 AM 77.0 °F 53.6 °F 44% 29.62 in 6.2 mi WNW 23.0 mph - N/A   Partly Cloudy
12:20 PM 77.0 °F 53.6 °F 44% 29.62 in 6.2 mi WNW 25.3 mph - N/A   Partly Cloudy
12:50 PM 78.8 °F 53.6 °F 42% 29.59 in 6.2 mi West 27.6 mph - N/A   Partly Cloudy
1:20 PM 78.8 °F 53.6 °F 42% 29.59 in 6.2 mi West 27.6 mph - N/A   Partly Cloudy
1:50 PM 80.6 °F 48.2 °F 32% 29.59 in 6.2 mi WNW 26.5 mph - N/A   Partly Cloudy
2:20 PM 80.6 °F 48.2 °F 32% 29.59 in 6.2 mi NW 28.8 mph 40.3 mph N/A   Partly Cloudy
2:50 PM 77.0 °F 50.0 °F 39% 29.59 in 6.2 mi WNW 29.9 mph 41.4 mph N/A   Scattered Clouds
3:00 PM 76 °F 50 °F 29% 29.60 in 12 mi WNW 29.9 mph - -   Partly Cloudy
3:20 PM 75.2 °F 53.6 °F 47% 29.59 in 6.2 mi WNW 29.9 mph 41.4 mph N/A   Scattered Clouds
3:50 PM 75.2 °F 51.8 °F 44% 29.59 in 6.2 mi WNW 28.8 mph 40.3 mph N/A   Scattered Clouds
4:20 PM 75.2 °F 51.8 °F 44% 29.59 in 6.2 mi WNW 29.9 mph 41.4 mph N/A   Scattered Clouds
4:50 PM 73.4 °F 55.4 °F 53% 29.59 in 6.2 mi WNW 32.2 mph 43.7 mph N/A   Scattered Clouds
5:20 PM 71.6 °F 53.6 °F 53% 29.62 in 6.2 mi WNW 32.2 mph 43.7 mph N/A   Scattered Clouds
5:50 PM 69.8 °F 51.8 °F 53% 29.62 in 6.2 mi WNW 28.8 mph 40.3 mph N/A   Scattered Clouds
6:20 PM 69.8 °F 51.8 °F 53% 29.62 in 6.2 mi WNW 28.8 mph 40.3 mph N/A   Scattered Clouds
6:50 PM 69.8 °F 51.8 °F 53% 29.65 in 6.2 mi WNW 31.1 mph - N/A   Scattered Clouds
7:20 PM 69.8 °F 51.8 °F 53% 29.65 in 6.2 mi WNW 28.8 mph - N/A   Scattered Clouds
7:50 PM 69.8 °F 51.8 °F 53% 29.68 in 6.2 mi WNW 27.6 mph - N/A   Scattered Clouds
8:20 PM 66.2 °F 57.2 °F 73% 29.68 in 6.2 mi WNW 28.8 mph - N/A Rain Light Rain
8:50 PM 66.2 °F 59.0 °F 78% 29.68 in 6.2 mi NNW 20.7 mph - N/A Rain Light Rain
9:00 PM 65 °F 59 °F 76% 29.70 in 9 mi North 19.6 mph - - Rain Light Rain
9:20 PM 66.2 °F 60.8 °F 83% 29.71 in 6.2 mi North 19.6 mph - N/A Rain Light Rain
9:50 PM 64.4 °F 57.2 °F 77% 29.71 in 6.2 mi NNE 16.1 mph - N/A   Mostly Cloudy
10:20 PM 64.4 °F 57.2 °F 77% 29.71 in 6.2 mi NNE 10.4 mph - N/A   Mostly Cloudy
10:50 PM 64.4 °F 57.2 °F 77% 29.74 in 6.2 mi North 6.9 mph - N/A   Mostly Cloudy
11:20 PM 64.4 °F 57.2 °F 77% 29.74 in 6.2 mi NNW 8.1 mph - N/A   Mostly Cloudy
11:50 PM 64.4 °F 57.2 °F 77% 29.74 in 6.2 mi SSW 4.6 mph - N/A   Mostly Cloudy